Moultrie, GA

4:43 PM EDT on June 26, 2017 (GMT -0400)
Moultrie Municipal

Weather History for KMGR - June, 2013

Change the Weather History Date:

Friday, June 28, 2013

  Actual Average (KMUL) Record (KMUL)
Temperature  
Mean Temperature 80 °F -  
Max Temperature 89 °F 91 °F 103 °F (1954)
Min Temperature 71 °F 68 °F 57 °F (1968)
Cooling Degree Days 15    
Growing Degree Days 30 (Base 50)    
Moisture  
Dew Point 74 °F    
Average Humidity 90    
Maximum Humidity 100    
Minimum Humidity 66    
Precipitation  
Precipitation 0.00 in - - ()
Sea Level Pressure  
Sea Level Pressure 29.87 in    
Wind  
Wind Speed 7 mph (WSW)    
Max Wind Speed 18 mph    
Max Gust Speed 26 mph    
Visibility 9 miles    
Events Rain , Thunderstorm    
Averages and records for this station are not official NWS values.
T = Trace of Precipitation, MM = Missing Value Source: NWS Daily Summary

Daily Weather History Graph

Daily Weather History Graph

Search for Another Location

Airport or City:

Trip Planner

Search our weather history database for the weather conditions in past years. The results will help you decide how hot, cold, wet, or windy it might be!

Date:

Astronomy

Jun. 28, 2013 Rise Set
Actual Time 6:34 AM EDT 8:42 PM EDT
Civil Twilight 6:06 AM EDT 9:10 PM EDT
Nautical Twilight 5:32 AM EDT 9:44 PM EDT
Astronomical Twilight 4:55 AM EDT 10:21 PM EDT
Moon 12:01 AM EDT (6/28) 12:15 PM EDT (6/28)
Length of Visible Light 15h 04m
Length of Day
14h 08m
Waning Gibbous, 66% of the Moon is Illuminated
Jun 28
Waning Gibbous
Jun 30
Last Quarter
Jul 8
New
Jul 15
First Quarter
Jul 22
Full

Hourly Weather History & Observations

Time (EDT) Temp. Heat Index Dew Point Humidity Pressure Visibility Wind Dir Wind Speed Gust Speed Precip Events Conditions
12:15 AM 77.0 °F - 75.2 °F 94% 29.94 in 10.0 mi WSW 5.8 mph - N/A Thunderstorm Scattered Clouds
12:35 AM 77.0 °F - 73.4 °F 89% 29.96 in 10.0 mi West 12.7 mph 21.9 mph N/A Thunderstorm Overcast
12:55 AM 73.4 °F - 69.8 °F 88% 29.93 in 10.0 mi WSW 15.0 mph 23.0 mph N/A Rain , Thunderstorm Light Thunderstorms and Rain
1:15 AM 73.4 °F - 68.0 °F 83% 29.92 in 10.0 mi SW 4.6 mph - N/A Thunderstorm Thunderstorm
1:35 AM 73.4 °F - 71.6 °F 94% 29.94 in 10.0 mi WNW 4.6 mph - N/A Thunderstorm Clear
1:55 AM 73.4 °F - 71.6 °F 94% 29.93 in 10.0 mi Calm Calm - N/A   Clear
2:35 AM 73.4 °F - 73.4 °F 100% 29.92 in 10.0 mi SW 3.5 mph - N/A   Clear
2:55 AM 75.2 °F - 73.4 °F 94% 29.92 in 10.0 mi SW 5.8 mph - N/A   Clear
3:15 AM 77.0 °F - 75.2 °F 94% 29.91 in 10.0 mi WSW 5.8 mph - N/A   Scattered Clouds
3:35 AM 77.0 °F - 75.2 °F 94% 29.90 in 7.0 mi SW 5.8 mph - N/A   Scattered Clouds
3:55 AM 77.0 °F - 77.0 °F 100% 29.90 in 7.0 mi SW 5.8 mph - N/A   Clear
4:15 AM 77.0 °F - 77.0 °F 100% 29.90 in 7.0 mi SW 6.9 mph - N/A   Scattered Clouds
4:35 AM 77.0 °F - 77.0 °F 100% 29.90 in 7.0 mi SW 4.6 mph - N/A   Mostly Cloudy
4:55 AM 77.0 °F - 77.0 °F 100% 29.89 in 7.0 mi SW 5.8 mph - N/A   Mostly Cloudy
5:15 AM 77.0 °F - 77.0 °F 100% 29.89 in 7.0 mi SW 6.9 mph - N/A   Mostly Cloudy
5:35 AM 77.0 °F - 77.0 °F 100% 29.89 in 7.0 mi WSW 6.9 mph - N/A   Mostly Cloudy
5:55 AM 77.0 °F - 77.0 °F 100% 29.90 in 7.0 mi WSW 8.1 mph - N/A   Mostly Cloudy
6:15 AM 77.0 °F - 77.0 °F 100% 29.90 in 7.0 mi WSW 5.8 mph - N/A   Scattered Clouds
6:35 AM 77.0 °F - 77.0 °F 100% 29.90 in 10.0 mi WSW 5.8 mph - N/A   Clear
6:55 AM 77.0 °F - 77.0 °F 100% 29.90 in 7.0 mi WSW 5.8 mph - N/A   Clear
7:15 AM 77.0 °F - 77.0 °F 100% 29.90 in 7.0 mi SW 5.8 mph - N/A   Clear
7:35 AM 77.0 °F - 77.0 °F 100% 29.89 in 10.0 mi SW 8.1 mph - N/A   Scattered Clouds
7:55 AM 78.8 °F - 77.0 °F 94% 29.88 in 10.0 mi WSW 11.5 mph - N/A   Scattered Clouds
8:55 AM 80.6 °F 88.1 °F 78.8 °F 94% 29.91 in 10.0 mi West 8.1 mph - N/A   Scattered Clouds
9:15 AM 80.6 °F 88.1 °F 78.8 °F 94% 29.90 in 10.0 mi West 8.1 mph - N/A   Scattered Clouds
9:35 AM 82.4 °F 92.4 °F 78.8 °F 89% 29.90 in 10.0 mi West 6.9 mph - N/A   Clear
9:55 AM 84.2 °F 94.1 °F 77.0 °F 79% 29.90 in 10.0 mi West 10.4 mph - N/A Thunderstorm Clear
10:15 AM 84.2 °F 94.1 °F 77.0 °F 79% 29.90 in 10.0 mi WSW 10.4 mph 16.1 mph N/A   Scattered Clouds
10:35 AM 86.0 °F 96.9 °F 77.0 °F 74% 29.89 in 10.0 mi WSW 12.7 mph - N/A   Scattered Clouds
10:55 AM 86.0 °F 96.9 °F 77.0 °F 74% 29.90 in 10.0 mi West 11.5 mph 18.4 mph N/A   Scattered Clouds
11:15 AM 86.0 °F 95.1 °F 75.2 °F 70% 29.90 in 10.0 mi West 9.2 mph 17.3 mph N/A   Mostly Cloudy
11:35 AM 86.0 °F 96.9 °F 77.0 °F 74% 29.88 in 10.0 mi West 8.1 mph - N/A   Scattered Clouds
11:55 AM 86.0 °F 95.1 °F 75.2 °F 70% 29.87 in 10.0 mi West 10.4 mph - N/A   Scattered Clouds
12:15 PM 86.0 °F 96.9 °F 77.0 °F 74% 29.87 in 10.0 mi WSW 12.7 mph 17.3 mph N/A   Mostly Cloudy
12:35 PM 86.0 °F 96.9 °F 77.0 °F 74% 29.87 in 10.0 mi West 5.8 mph - N/A   Mostly Cloudy
12:55 PM 86.0 °F 96.9 °F 77.0 °F 74% 29.87 in 10.0 mi West 9.2 mph - N/A   Mostly Cloudy
1:15 PM 87.8 °F 99.7 °F 77.0 °F 70% 29.86 in 10.0 mi West 9.2 mph - N/A Thunderstorm Scattered Clouds
1:35 PM 89.6 °F 102.2 °F 77.0 °F 66% 29.85 in 10.0 mi WSW 12.7 mph 16.1 mph N/A Thunderstorm Clear
1:55 PM 87.8 °F 99.7 °F 77.0 °F 70% 29.85 in 10.0 mi WSW 9.2 mph - N/A   Scattered Clouds
2:15 PM 87.8 °F 99.7 °F 77.0 °F 70% 29.85 in 10.0 mi South 15.0 mph 21.9 mph N/A Thunderstorm Mostly Cloudy
2:35 PM 80.6 °F 85.4 °F 73.4 °F 79% 29.85 in 10.0 mi South 13.8 mph 23.0 mph N/A   Mostly Cloudy
2:55 PM 80.6 °F 85.4 °F 73.4 °F 79% 29.84 in 10.0 mi SSW 18.4 mph 26.5 mph N/A Thunderstorm Mostly Cloudy
3:15 PM 77.0 °F - 71.6 °F 83% 29.90 in 5.0 mi WSW 12.7 mph 26.5 mph N/A Rain , Thunderstorm Heavy Thunderstorms and Rain
3:35 PM 73.4 °F - 71.6 °F 94% 29.89 in 4.0 mi SSW 3.5 mph - N/A Rain , Thunderstorm Thunderstorms and Rain
3:55 PM 73.4 °F - 71.6 °F 94% 29.85 in 7.0 mi SSE 3.5 mph - N/A Rain , Thunderstorm Rain
4:15 PM 73.4 °F - 71.6 °F 94% 29.83 in 10.0 mi SSE 4.6 mph - N/A Thunderstorm Drizzle
4:35 PM 73.4 °F - 71.6 °F 94% 29.83 in 10.0 mi East 3.5 mph - N/A Rain , Thunderstorm Light Thunderstorms and Rain
4:55 PM 73.4 °F - 71.6 °F 94% 29.83 in 10.0 mi Calm Calm - N/A Rain Light Rain
5:15 PM 73.4 °F - 71.6 °F 94% 29.83 in 10.0 mi Calm Calm - N/A Rain Light Rain
5:35 PM 75.2 °F - 73.4 °F 94% 29.83 in 10.0 mi Calm Calm - N/A Rain Light Rain
5:55 PM 73.4 °F - 73.4 °F 100% 29.83 in 10.0 mi Calm Calm - N/A Rain Light Rain
6:15 PM 75.2 °F - 73.4 °F 94% 29.83 in 10.0 mi WSW 3.5 mph - N/A   Scattered Clouds
6:35 PM 77.0 °F - 73.4 °F 89% 29.84 in 10.0 mi WNW 3.5 mph - N/A   Clear
6:55 PM 77.0 °F - 71.6 °F 83% 29.85 in 10.0 mi WNW 6.9 mph 17.3 mph N/A   Clear
7:15 PM 73.4 °F - 71.6 °F 94% 29.85 in 10.0 mi West 4.6 mph - N/A Thunderstorm Clear
7:35 PM 73.4 °F - 71.6 °F 94% 29.85 in 10.0 mi NNW 4.6 mph - N/A   Clear
7:55 PM 73.4 °F - 71.6 °F 94% 29.87 in 10.0 mi WNW 4.6 mph - N/A   Clear
8:15 PM 73.4 °F - 71.6 °F 94% 29.85 in 10.0 mi Calm Calm - N/A Rain , Thunderstorm Light Thunderstorms and Rain
8:35 PM 73.4 °F - 71.6 °F 94% 29.84 in 10.0 mi Calm Calm - N/A Rain , Thunderstorm Light Thunderstorms and Rain
8:55 PM 73.4 °F - 71.6 °F 94% 29.81 in 10.0 mi SE 3.5 mph - N/A   Clear
9:15 PM 71.6 °F - 71.6 °F 100% 29.79 in 10.0 mi SSE 6.9 mph - N/A Thunderstorm Clear
9:35 PM 71.6 °F - 71.6 °F 100% 29.78 in 7.0 mi SSE 6.9 mph - N/A   Clear
9:55 PM 71.6 °F - 71.6 °F 100% 29.79 in 10.0 mi SSE 5.8 mph - N/A   Clear
10:15 PM 71.6 °F - 71.6 °F 100% 29.80 in 10.0 mi South 4.6 mph - N/A   Clear
10:35 PM 71.6 °F - 71.6 °F 100% 29.82 in 10.0 mi West 3.5 mph - N/A   Clear
10:55 PM 71.6 °F - 71.6 °F 100% 29.82 in 10.0 mi SW 4.6 mph - N/A   Clear
11:15 PM 71.6 °F - 71.6 °F 100% 29.82 in 10.0 mi SW 4.6 mph - N/A   Clear
11:35 PM 71.6 °F - 71.6 °F 100% 29.82 in 10.0 mi SW 3.5 mph - N/A   Clear
11:55 PM 71.6 °F - 71.6 °F 100% 29.80 in 10.0 mi South 9.2 mph - N/A   Clear